This is the latest recevied weather packets stored in our database for station/object K7MT-WX. If no packets are shown the sender has not sent any weather packets the latest 10 day(s).
| Time | Temp. | Humidity | Pressure | Rain* | Wind** | Luminosity | Snow |
|---|---|---|---|---|---|---|---|
| 1788601969 | 12.78° C | 77% | 1018.3 hPa | 0 mm | - | - | - |
| 1788601069 | 12.78° C | 79% | 1018.6 hPa | 0 mm | - | - | - |
| 1788600169 | 12.22° C | 80% | 1017 hPa | 0 mm | - | - | - |
| 1788599269 | 13.33° C | 77% | 1016.9 hPa | 0 mm | - | - | - |
| 1788598369 | 12.78° C | 78% | 1017.9 hPa | 0 mm | - | - | - |
| 1788597469 | 12.78° C | 78% | 1017 hPa | 0 mm | - | - | - |
| 1788596569 | 12.78° C | 78% | 1017.2 hPa | 0 mm | - | - | - |
| 1788595669 | 12.78° C | 78% | 1017.1 hPa | 0 mm | - | - | - |
| 1788594769 | 12.78° C | 78% | 1017.2 hPa | 0 mm | - | - | - |
| 1788593869 | 12.78° C | 79% | 1017.1 hPa | 0 mm | - | - | - |
| 1788592969 | 12.78° C | 79% | 1017 hPa | 0 mm | - | - | - |
| 1788592069 | 12.78° C | 81% | 1016.6 hPa | 0 mm | - | - | - |
| 1788591169 | 12.78° C | 76% | 1016.3 hPa | 0 mm | - | - | - |
| 1788590269 | 13.33° C | 76% | 1016.2 hPa | 0 mm | - | - | - |
| 1788589369 | 13.33° C | 75% | 1015.9 hPa | 0 mm | - | - | - |
| 1788588469 | 13.89° C | 73% | 1016.1 hPa | 0 mm | - | - | - |
| 1788587569 | 14.44° C | 72% | 1015.8 hPa | 0 mm | - | - | - |
| 1788586669 | 14.44° C | 71% | 1015.7 hPa | 0 mm | - | - | - |
| 1788585769 | 14.44° C | 70% | 1016.2 hPa | 0 mm | - | - | - |
| 1788584869 | 15° C | 72% | 1016.3 hPa | 0 mm | - | - | - |
| 1788583969 | 15° C | 71% | 1016.5 hPa | 0 mm | - | - | - |
| 1788583069 | 14.44° C | 71% | 1015.7 hPa | 0 mm | - | - | - |
| 1788582169 | 15° C | 70% | 1015.2 hPa | 0 mm | - | - | - |
| 1788581269 | 15.56° C | 68% | 1015 hPa | 0 mm | - | - | - |
| 1788580369 | 15.56° C | 68% | 1014.9 hPa | 0 mm | - | - | - |
* Rain latest hour (hover to see other rain measurements)
** Current wind speed in m/s (hover to see current wind gust speed)